[[{"header":{"parameterUnit":"m.s-1","parameterCategory":1,"la1":30.2991,"la2":30.254,"lo1":-89.0895,"lo2":-89.0444,"dy":0.0017,"dx":0.0017,"nx":28,"ny":28,"refTime":"2025-06-07T09:00:00:Z","depth":0,"parameterNumber":2,"parameterNumberName":"U-component_of_WINDS"},"data":[0,0,0,0,0,0,0,0,0,0,0,0,0,0,0,0,0,0,0,0,0,0,0,0,0,0,0,0,0,0,0,0,0,0,0,0,0,0,0,0,0,0,0,0,0,0,0,0,0,0,0,0,0,0,0,0,0,0,6.2202,6.2204,0,6.2377,6.2379,6.2381,6.236,6.2357,6.2354,6.2351,6.2528,6.2536,6.2543,0,0,0,0,0,0,0,0,0,0,0,0,0,6.1846,6.1852,6.2202,6.2204,6.2206,6.2377,6.2379,6.2381,6.236,6.2357,6.2353,6.235,6.2526,6.2535,6.2544,0,0,0,0,0,0,0,0,0,0,0,0,0,6.2008,6.1854,6.2202,6.2216,6.2219,6.2376,6.2379,6.2382,6.2361,6.2357,6.2352,6.2348,6.2523,6.2534,6.2545,6.2697,0,0,6.2578,6.2583,0,0,0,0,0,0,0,0,6.1999,6.2021,6.2212,6.2216,6.2219,6.2342,6.2318,6.2488,6.2362,6.2307,6.2351,6.2346,6.247,6.2485,6.2527,6.2706,6.2713,6.2579,6.2586,6.2591,6.2594,0,0,0,0,0,0,0,6.1988,6.2014,6.2271,6.2215,6.2219,6.2213,6.2231,6.235,6.241,6.2312,6.231,6.2331,6.2471,6.2516,6.2531,6.2716,6.2579,6.2589,6.2596,6.26,6.3023,6.3027,0,0,0,0,0,0,6.1973,6.2004,6.2266,6.2276,6.2097,6.2223,6.2243,6.2307,6.2409,6.242,6.2335,6.233,6.25,6.2518,6.2537,6.2718,6.2591,6.2601,6.2607,6.3018,6.3024,6.3029,0,0,0,0,0,0,6.1966,6.1997,6.2259,6.214,6.2173,6.2233,6.2305,6.2313,6.2358,6.2426,6.2436,6.2371,6.2497,6.2522,6.2656,6.2724,6.2606,6.2616,6.3013,6.302,6.3026,6.3084,0,0,0,0,0,0,6.1956,6.1994,6.2054,6.2142,6.2179,6.2377,6.2309,6.2319,6.2377,6.2372,6.2462,6.2473,6.2496,6.264,6.2667,6.2737,6.2625,6.3007,6.3016,6.3024,6.3076,6.3092,6.3106,0,0,0,0,0,6.1943,6.2064,6.2057,6.2089,6.2256,6.2381,6.2402,6.2426,6.2383,6.2442,6.2485,6.247,6.2713,6.2654,6.2685,6.2759,6.3003,6.3013,6.3024,6.307,6.3089,6.3105,0,0,0,0,0,0,6.1983,6.2076,6.2069,6.2223,6.2294,6.2377,6.2453,6.2446,6.253,6.2522,6.2547,6.2568,6.2703,6.2745,6.2678,6.2909,6.2852,6.2869,6.2876,6.2895,6.291,6.2895,6.2634,0,0,0,0,0,6.201,6.2105,6.218,6.2308,6.2344,6.2392,6.2448,6.246,6.2534,6.2564,6.2617,6.2689,6.2781,6.2841,6.293,6.3083,6.31,6.3149,6.3163,6.3175,6.3188,6.3267,6.3288,6.3063,6.3063,6.3063,0,0,6.2066,6.2128,6.2187,6.2318,6.2374,6.2469,6.2418,6.2522,6.2592,6.258,6.2709,6.2751,6.2832,6.2976,6.3042,6.3015,6.3255,6.3188,6.3197,6.3204,6.328,6.3301,6.332,6.307,6.3069,6.3068,0,0,6.2215,6.2274,6.2385,6.2442,6.2528,6.2559,6.2585,6.2669,6.2695,6.2826,6.2817,6.2901,6.306,6.3117,6.3167,6.3335,6.3322,6.3363,6.3439,6.3515,6.3533,6.3549,6.3604,6.3624,6.3377,6.3377,6.3378,0,6.2274,6.2418,6.2442,6.2547,6.2602,6.2596,6.2706,6.276,6.2871,6.2908,6.2877,6.3074,6.3129,6.3283,6.3323,6.3366,6.3394,6.3352,6.3529,6.3545,6.356,6.3613,6.3634,6.3381,6.3381,6.3381,6.338,0,6.2483,6.2583,6.2662,6.2767,6.2833,6.294,6.2978,6.3041,6.3047,6.308,6.3211,6.3276,6.3376,6.3414,6.3422,6.3569,6.3548,6.3523,6.3465,6.3585,6.3635,6.3656,6.3387,6.3386,6.3385,6.3384,0,0,6.2662,6.2778,6.2806,6.2852,6.2945,6.3022,6.3127,6.3225,6.3276,6.3353,6.3438,6.3572,6.3548,6.3604,6.3618,6.3686,6.3809,6.3652,6.3654,6.3674,6.3969,6.3984,6.4008,6.3802,6.3807,6.381,6.396,0,6.2817,6.3003,6.3027,6.3191,6.3281,6.3275,6.3366,6.3432,6.3465,6.3545,6.3582,6.3674,6.3638,6.3671,6.3739,6.378,6.3867,6.377,6.3879,6.3883,6.3855,6.4035,6.4052,6.4191,6.3981,6.3984,6.3987,0,6.3023,6.3103,6.3276,6.3353,6.3392,6.3473,6.3562,6.364,6.3713,6.3732,6.3794,6.3798,6.3904,6.3844,6.3988,6.3921,6.3967,6.3994,6.4,6.4008,6.3939,6.4043,6.4237,6.4256,6.4018,6.4016,6.4014,0,6.313,6.3282,6.3404,6.3444,6.3538,6.3595,6.3636,6.3706,6.3761,6.3839,6.3874,6.3964,6.4012,6.408,6.4106,6.4061,6.4247,6.4191,6.4263,6.4262,6.43,6.4296,6.4499,6.4337,6.4337,6.4336,6.4336,0,6.3298,6.3403,6.3452,6.3527,6.3643,6.3669,6.3782,6.3822,6.3883,6.3963,6.3964,6.4039,6.4072,6.4152,6.4174,6.4287,6.431,6.4326,6.4329,6.4323,6.432,6.4351,6.434,6.4342,6.4341,6.4339,6.4338,0,6.3436,6.3474,6.3606,6.3684,6.3705,6.3787,6.3852,6.3923,6.3956,6.4057,6.4082,6.4132,6.4225,6.426,6.4374,6.4389,6.4518,6.4516,6.4493,6.4492,6.4561,6.4552,6.4787,6.4817,6.4639,6.4641,6.4642,0,6.3539,6.3619,6.3705,6.3759,6.3802,6.3889,6.3945,6.3973,6.4031,6.4119,6.4178,6.4271,6.4346,6.4495,6.454,6.4627,6.4624,6.47,6.4637,6.4626,6.4619,6.4612,6.4618,6.4711,6.4713,6.4714,6.4715,0,6.3716,6.373,6.3811,6.3898,6.3965,6.4035,6.4103,6.4147,6.4184,6.4249,6.4344,6.4403,6.4518,6.4608,6.4696,6.4737,6.4731,6.4735,6.4756,6.4748,6.4729,6.4735,6.452,6.4729,6.4728,6.4727,6.4726,6.4725,6.3836,6.3905,6.3975,6.4065,6.4119,6.4181,6.425,6.429,6.437,6.4466,6.4478,6.4578,6.4646,6.4763,6.4808,6.4886,6.4865,6.4896,6.4903,6.4909,6.4911,6.472,6.4903,6.4902,6.4902,6.4902,6.4901,0,6.4008,6.4053,6.4135,6.4229,6.4298,6.4289,6.4362,6.442,6.4509,6.4573,6.4647,6.4754,6.4841,6.4893,6.498,6.5032,6.5031,6.5053,6.5047,6.5056,6.4927,6.4899,6.5052,6.5052,6.5052,6.5052,6.5052,6.5052,6.4106,6.4221,6.4243,6.4383,6.4427,6.4525,6.4567,6.4624,6.4675,6.4794,6.4866,6.49,6.4958,6.5049,6.5127,6.514,6.517,6.5193,6.5203,6.5081,6.5066,6.5051,6.5024,6.5201,6.5201,6.5325,6.5326,6.5327]},{"header":{"parameterUnit":"m.s-1","parameterCategory":1,"la1":30.2991,"la2":30.254,"lo1":-89.0895,"lo2":-89.0444,"dy":0.0017,"dx":0.0017,"nx":28,"ny":28,"refTime":"2025-06-07T09:00:00:Z","depth":0,"parameterNumber":3,"parameterNumberName":"V-component_of_WINDS"},"data":[0,0,0,0,0,0,0,0,0,0,0,0,0,0,0,0,0,0,0,0,0,0,0,0,0,0,0,0,0,0,0,0,0,0,0,0,0,0,0,0,0,0,0,0,0,0,0,0,0,0,0,0,0,0,0,0,0,0,4.7168,4.7169,0,4.7311,4.7313,4.7314,4.7302,4.73,4.7298,4.7296,4.7439,4.7445,4.7451,0,0,0,0,0,0,0,0,0,0,0,0,0,4.6879,4.6885,4.7167,4.7169,4.7171,4.7311,4.7313,4.7315,4.7303,4.73,4.7297,4.7295,4.7438,4.7444,4.7451,0,0,0,0,0,0,0,0,0,0,0,0,0,4.7012,4.6886,4.7167,4.7182,4.7185,4.731,4.7313,4.7315,4.7303,4.73,4.7297,4.7294,4.7435,4.7444,4.7452,4.7572,0,0,4.7479,4.7483,0,0,0,0,0,0,0,0,4.7004,4.7022,4.7178,4.7181,4.7184,4.7285,4.7264,4.7401,4.7304,4.7258,4.7296,4.7292,4.7391,4.7403,4.7437,4.7578,4.7585,4.748,4.7485,4.7489,4.7492,0,0,0,0,0,0,0,4.6995,4.7016,4.7224,4.718,4.7184,4.718,4.7195,4.729,4.7341,4.7262,4.7261,4.7279,4.7392,4.7428,4.744,4.7587,4.748,4.7488,4.7493,4.7496,4.7831,4.7835,0,0,0,0,0,0,4.6983,4.7008,4.722,4.7228,4.7085,4.7188,4.7205,4.7256,4.734,4.7349,4.7281,4.7277,4.7415,4.743,4.7445,4.7589,4.7489,4.7497,4.7502,4.7828,4.7832,4.7836,0,0,0,0,0,0,4.6977,4.7002,4.7214,4.7118,4.7145,4.7196,4.7254,4.7261,4.7297,4.7354,4.7363,4.731,4.7413,4.7433,4.754,4.7594,4.7501,4.7509,4.7823,4.7829,4.7834,4.7879,0,0,0,0,0,0,4.6969,4.7,4.7047,4.712,4.715,4.7308,4.7257,4.7266,4.7313,4.7309,4.7383,4.7392,4.7412,4.7527,4.7549,4.7604,4.7516,4.7819,4.7826,4.7832,4.7873,4.7885,4.7896,0,0,0,0,0,4.6958,4.7053,4.7049,4.7075,4.721,4.7311,4.7328,4.735,4.7317,4.7364,4.74,4.739,4.7585,4.7538,4.7563,4.7621,4.7815,4.7824,4.7832,4.7867,4.7883,4.7895,0,0,0,0,0,0,4.6985,4.7063,4.7059,4.7181,4.724,4.7309,4.7369,4.7365,4.7434,4.7427,4.745,4.7467,4.7575,4.7609,4.7556,4.774,4.7695,4.7709,4.7714,4.7729,4.774,4.773,4.7523,0,0,0,0,0,4.7005,4.7081,4.7145,4.7246,4.7276,4.7317,4.7362,4.7373,4.7434,4.7459,4.7503,4.7562,4.7636,4.7684,4.7756,4.7877,4.7892,4.793,4.7941,4.795,4.7962,4.8027,4.8044,4.7863,4.7863,4.7863,0,0,4.7047,4.7099,4.7146,4.7253,4.7299,4.7377,4.7338,4.7422,4.7479,4.7471,4.7575,4.761,4.7677,4.7791,4.7844,4.7823,4.8015,4.7961,4.7968,4.7974,4.8037,4.8054,4.8069,4.7868,4.7867,4.7866,0,0,4.7162,4.721,4.7299,4.7347,4.7418,4.7445,4.7466,4.7536,4.7559,4.7664,4.7659,4.7727,4.7854,4.7902,4.7943,4.8075,4.8068,4.8098,4.8158,4.8221,4.8235,4.8248,4.8294,4.831,4.8109,4.8109,4.8109,0,4.7205,4.7323,4.7345,4.743,4.7476,4.7473,4.7562,4.7607,4.7698,4.7729,4.7705,4.7864,4.7909,4.8034,4.8066,4.81,4.8123,4.8089,4.8231,4.8244,4.8257,4.8301,4.8318,4.8112,4.8112,4.8111,4.8111,0,4.7372,4.7453,4.7516,4.7604,4.7658,4.7744,4.7778,4.7829,4.7835,4.7864,4.797,4.8024,4.8106,4.8136,4.8143,4.8262,4.8246,4.8227,4.8182,4.8277,4.8318,4.8336,4.8117,4.8115,4.8114,4.8114,0,0,4.7509,4.7607,4.763,4.7669,4.7747,4.781,4.7895,4.7976,4.8019,4.8081,4.8152,4.826,4.8242,4.8288,4.83,4.8356,4.8456,4.8329,4.8331,4.835,4.8588,4.8602,4.8622,4.8451,4.8455,4.8457,4.8582,0,4.7631,4.7784,4.7806,4.794,4.8015,4.8012,4.8086,4.8141,4.817,4.8237,4.8268,4.8344,4.8314,4.8342,4.8397,4.8432,4.8504,4.8423,4.8516,4.8519,4.8499,4.8644,4.8659,4.8775,4.8599,4.8602,4.8604,0,4.7796,4.7863,4.8005,4.8071,4.8104,4.817,4.8245,4.8309,4.837,4.8387,4.8439,4.8444,4.853,4.8482,4.8601,4.8546,4.8585,4.8608,4.8613,4.8622,4.8567,4.8656,4.8812,4.8829,4.863,4.8628,4.8626,0,4.788,4.8006,4.8107,4.8141,4.8221,4.8268,4.8303,4.8362,4.8408,4.8473,4.8504,4.8578,4.8618,4.8674,4.8698,4.8661,4.8816,4.877,4.8831,4.883,4.8863,4.8861,4.9027,4.889,4.8889,4.8889,4.8889,0,4.8015,4.8101,4.8146,4.8208,4.8304,4.8327,4.8421,4.8455,4.8507,4.8574,4.8576,4.8639,4.8668,4.8734,4.8754,4.8848,4.8867,4.8882,4.8886,4.8881,4.8879,4.8907,4.8899,4.8894,4.8893,4.8892,4.8891,0,4.8125,4.8159,4.8268,4.8335,4.8354,4.8422,4.8479,4.8538,4.8566,4.8651,4.8672,4.8716,4.8794,4.8824,4.892,4.8933,4.9042,4.904,4.9021,4.9022,4.9081,4.9075,4.9271,4.9297,4.9143,4.9144,4.9146,0,4.8209,4.8275,4.835,4.8395,4.8432,4.8506,4.8554,4.8579,4.8628,4.8702,4.8752,4.8831,4.8895,4.902,4.906,4.9132,4.9131,4.9195,4.9142,4.9135,4.9131,4.9127,4.9133,4.9204,4.9206,4.9207,4.9208,0,4.8353,4.8366,4.8435,4.851,4.8567,4.8627,4.8685,4.8722,4.8756,4.881,4.8891,4.8941,4.9039,4.9116,4.9191,4.9226,4.9222,4.9225,4.9242,4.9238,4.9225,4.9232,4.9047,4.922,4.9219,4.9218,4.9217,4.9217,4.8452,4.851,4.8572,4.8648,4.8695,4.8749,4.8808,4.8843,4.8911,4.8993,4.9003,4.909,4.9148,4.9248,4.9286,4.9353,4.9336,4.9362,4.9368,4.9374,4.9378,4.9215,4.9367,4.9366,4.9366,4.9366,4.9366,0,4.8595,4.8634,4.8705,4.8786,4.8846,4.8839,4.8902,4.8953,4.9029,4.9084,4.9147,4.9239,4.9314,4.9359,4.9434,4.9478,4.9479,4.9497,4.9494,4.9501,4.9389,4.9366,4.9496,4.9496,4.9496,4.9496,4.9495,4.9495,4.8677,4.8775,4.8795,4.8916,4.8954,4.904,4.9076,4.9126,4.917,4.9273,4.9335,4.9364,4.9415,4.9493,4.9561,4.9572,4.9599,4.9619,4.9629,4.9523,4.951,4.9497,4.9475,4.9625,4.9625,4.9735,4.9736,4.9737]}]]